TimeEDT,TemperatureF,Dew PointF,Humidity,Sea Level PressureIn,VisibilityMPH,Wind Direction,Wind SpeedMPH,Gust SpeedMPH,PrecipitationIn,Events,Conditions,WindDirDegrees,DateUTC
12:53 AM,48.0,41.0,77,29.72,10.0,WSW,6.9,-,N/A,,Overcast,240,2013-11-02 04:53:00
1:53 AM,48.0,39.9,74,29.72,10.0,WSW,6.9,-,N/A,,Overcast,250,2013-11-02 05:53:00
2:13 AM,48.2,39.2,71,29.71,10.0,WSW,6.9,-,N/A,,Overcast,250,2013-11-02 06:13:00
2:30 AM,48.2,41.0,76,29.71,10.0,West,10.4,-,N/A,,Overcast,260,2013-11-02 06:30:00
2:53 AM,46.9,39.9,77,29.72,9.0,WSW,6.9,-,N/A,,Overcast,240,2013-11-02 06:53:00
3:53 AM,46.0,41.0,83,29.71,8.0,West,8.1,-,N/A,,Overcast,260,2013-11-02 07:53:00
4:36 AM,46.4,41.0,81,29.71,8.0,West,11.5,-,N/A,,Overcast,260,2013-11-02 08:36:00
4:53 AM,46.0,41.0,83,29.72,7.0,West,9.2,-,N/A,,Overcast,260,2013-11-02 08:53:00
5:53 AM,46.0,41.0,83,29.73,8.0,West,10.4,-,N/A,,Overcast,270,2013-11-02 09:53:00
6:53 AM,46.0,41.0,83,29.75,8.0,West,9.2,18.4,N/A,,Overcast,270,2013-11-02 10:53:00
7:31 AM,44.6,41.0,87,29.75,7.0,West,9.2,-,N/A,,Overcast,270,2013-11-02 11:31:00
7:53 AM,45.0,41.0,86,29.76,8.0,West,8.1,-,N/A,,Overcast,280,2013-11-02 11:53:00
8:53 AM,45.0,42.1,90,29.78,6.0,West,8.1,-,N/A,,Overcast,270,2013-11-02 12:53:00
9:53 AM,46.0,42.1,86,29.80,6.0,WNW,10.4,-,N/A,,Overcast,290,2013-11-02 13:53:00
10:53 AM,46.0,41.0,83,29.81,6.0,West,8.1,17.3,N/A,,Haze,280,2013-11-02 14:53:00
11:02 AM,46.4,41.0,81,29.80,6.0,West,11.5,17.3,N/A,,Haze,270,2013-11-02 15:02:00
11:53 AM,46.9,39.0,74,29.83,6.0,West,12.7,-,N/A,,Haze,280,2013-11-02 15:53:00
12:53 PM,46.9,39.9,77,29.84,6.0,West,9.2,-,N/A,,Haze,270,2013-11-02 16:53:00
1:53 PM,48.0,39.9,74,29.84,7.0,WNW,10.4,-,N/A,,Overcast,290,2013-11-02 17:53:00
2:46 PM,48.2,39.2,71,29.83,8.0,West,13.8,19.6,0.00,,Overcast,280,2013-11-02 18:46:00
2:53 PM,50.0,39.9,68,29.85,9.0,West,13.8,-,0.00,,Overcast,280,2013-11-02 18:53:00
3:53 PM,46.9,43.0,86,29.87,6.0,NW,8.1,-,0.01,Rain,Light Rain,310,2013-11-02 19:53:00
4:40 PM,44.6,42.8,93,29.88,6.0,NW,6.9,-,0.02,Rain,Light Rain,320,2013-11-02 20:40:00
4:53 PM,45.0,43.0,93,29.90,5.0,NW,5.8,-,0.03,Rain,Light Rain,310,2013-11-02 20:53:00
5:04 PM,44.6,41.0,87,29.89,2.0,NW,13.8,19.6,0.02,Rain,Light Rain,310,2013-11-02 21:04:00
5:13 PM,44.6,41.0,87,29.89,8.0,NW,8.1,19.6,0.02,Rain,Light Rain,320,2013-11-02 21:13:00
5:32 PM,44.6,41.0,87,29.90,9.0,NW,5.8,-,0.02,Rain,Light Rain,320,2013-11-02 21:32:00
5:53 PM,44.1,41.0,89,29.93,10.0,WNW,6.9,-,0.03,Rain,Light Rain,290,2013-11-02 21:53:00
6:53 PM,44.1,42.1,93,29.96,10.0,WNW,5.8,-,0.00,,Overcast,290,2013-11-02 22:53:00
7:53 PM,43.0,39.9,89,29.98,5.0,NNW,3.5,-,0.06,Rain,Light Rain,340,2013-11-02 23:53:00
8:53 PM,41.0,39.0,93,30.01,10.0,WNW,4.6,-,0.00,,Mostly Cloudy,290,2013-11-03 00:53:00
9:34 PM,42.8,39.2,87,30.01,8.0,NNW,5.8,-,0.00,Rain,Light Rain,340,2013-11-03 01:34:00
9:53 PM,42.1,39.9,92,30.04,10.0,NNW,5.8,-,0.00,,Overcast,330,2013-11-03 01:53:00
10:07 PM,42.8,39.2,87,30.02,10.0,NNW,4.6,-,N/A,,Scattered Clouds,340,2013-11-03 02:07:00
10:30 PM,41.0,39.2,93,30.03,10.0,NW,4.6,-,N/A,,Mostly Cloudy,320,2013-11-03 02:30:00
10:43 PM,42.8,39.2,87,30.04,10.0,NNW,5.8,-,N/A,,Overcast,340,2013-11-03 02:43:00
10:53 PM,43.0,39.9,89,30.06,10.0,NNW,5.8,-,N/A,,Overcast,340,2013-11-03 02:53:00
11:06 PM,42.8,39.2,87,30.05,10.0,NNW,6.9,-,N/A,,Mostly Cloudy,340,2013-11-03 03:06:00
11:53 PM,43.0,39.9,89,30.08,10.0,North,6.9,-,N/A,,Overcast,350,2013-11-03 03:53:00